Location: S�tio Altair P. Pereira
(26.0560°S, 49.3248°W)
Time: 17:07:39
(UTC+00:00)

Daily predictions for brighter satellites

Satellite Brightness Start Highest point End
(mag) Time Altitude Azimuth Time Altitude Azimuth Time Altitude Azimuth
USA 116 4.4 20:55:11 10° NNE 21:00:00 50° ESE 21:04:23 10° S
H-2A R/B 2.7 21:01:38 10° SSE 21:05:30 86° E 21:09:16 10° N
COSMO-SKYMED 1 3.7 21:01:46 10° N 21:05:59 51° W 21:10:16 10° SSW
Cosmos 1025 Rocket 3.4 21:02:42 10° S 21:07:04 70° W 21:11:22 10° N
Cosmos 1766 3.4 21:05:39 10° N 21:09:25 53° E 21:13:14 10° SSE
Okean 1 Rocket 3.3 21:06:50 10° N 21:11:11 77° W 21:15:39 10° S
Cosmos 1503 Rocket 4.1 21:07:31 10° N 21:12:44 65° ENE 21:17:58 10° SSE
Cosmos 1833 4.4 21:08:13 10° NNW 21:13:56 80° WSW 21:19:46 10° SSE
GPS 2-04 Rocket1 3.4 21:11:09 10° SW 21:14:22 30° SSE 21:17:14 11° ESE
ASTRO E2 2.8 21:12:52 10° WSW 21:16:52 60° SSE 21:20:50 10° E
CZ-2C R/B 4.3 21:16:05 10° E 21:17:12 11° ESE 21:18:20 10° SE
Meteor 1-22 Rocket 4.4 21:12:15 10° NNE 21:17:30 50° E 21:23:00 10° SSE
Cosmos 1437 3.7 21:15:03 10° SSE 21:17:38 24° E 21:20:11 10° NE
Cosmos 2322 Rocket 2.3 21:15:05 10° S 21:20:40 55° ESE 21:26:10 10° NNE
ERBS 2.5 21:19:10 10° NW 21:22:32 73° SW 21:25:58 10° SSE
Cosmos 841 Rocket 4.5 21:21:35 10° SSW 21:26:43 52° WNW 21:31:46 10° N
GEOS 3 Rocket 3.8 21:23:00 10° NE 21:28:03 48° SE 21:33:03 10° SSW
ASTEX 1 3.8 21:23:24 10° SSE 21:28:07 41° E 21:32:48 10° NNE
Cosmos 968 Rocket 4.4 21:24:51 10° NNW 21:29:52 51° WSW 21:35:00 10° S
Meteor 2-5 Rocket 4.0 21:24:38 10° S 21:30:01 45° E 21:35:26 10° NNE
USA 215 3.4 21:26:01 10° NE 21:32:32 81° NW 21:39:07 10° SW
Helios 1A Rocket 3.3 21:32:36 10° SSE 21:36:38 45° E 21:40:36 10° N
Cosmos 1470 3.6 21:33:56 10° NNE 21:37:26 30° E 21:39:43 18° SE
Cosmos 1939 Rocket 4.3 21:37:19 19° E 21:37:53 19° E 21:40:52 10° NE
Cosmos 2297 Rocket 4.0 21:37:55 10° ENE 21:39:13 12° ENE 21:39:13 12° ENE
SL-24 R/B - RUBIN 2 3.7 21:37:55 10° SSW 21:42:18 55° ESE 21:47:08 10° NE
NOAA 12 4.0 21:37:27 10° SSE 21:42:46 84° ENE 21:48:03 10° N
GPS 2-14 Rocket1 3.8 21:46:11 10° WNW 21:49:39 34° N 21:51:58 18° NE
Cosmos 1777 Rocket 4.4 21:45:57 10° N 21:50:54 42° E 21:53:47 23° SE
Cosmos 2266 Rocket 3.8 21:44:49 10° S 21:50:56 75° E 21:56:57 10° N
Cosmos 1674 3.3 21:47:44 10° SSW 21:51:33 60° W 21:55:19 10° N
SMAP 3.9 21:48:29 10° S 21:53:02 50° WSW 21:57:31 10° NNW
Cosmos 1626 2.5 21:51:36 24° SSE 21:53:19 38° E 21:56:48 10° NNE
KM-V1 4.3 21:51:53 10° WSW 21:54:58 33° S 21:54:58 33° S
Meteor 1-24 Rocket 3.7 21:49:43 10° S 21:55:06 57° E 22:00:36 10° NNE
CENTAUR R/B 4.5 21:49:08 10° WNW 21:56:29 33° WSW 22:03:06 10° S
Feng Yun 1-1 Rocket 4.3 21:50:36 10° SSE 21:56:30 78° ENE 22:02:23 10° N
Envisat 4.1 21:53:26 10° S 21:58:19 45° WSW 22:03:09 10° NW
Cosmos 2360 Rocket 2.1 21:52:53 10° S 21:58:29 60° ESE 22:04:01 10° NNE
NOSS 3-3 (A) 3.8 21:52:39 10° SSW 21:58:36 55° ESE 22:04:04 10° NE
NOSS 3-3 (C) 3.8 21:52:45 10° SSW 21:58:42 54° ESE 22:04:10 10° NE
Cosmos 1340 Rocket 4.2 21:57:02 10° NNE 21:59:02 22° NE 21:59:02 22° NE
ATLAS 5 CENTAUR R/B 1.7 21:59:15 10° NW 22:01:23 31° NNE 22:02:42 24° NE
MOS 1 Rocket 3.7 21:57:19 10° NNE 22:02:29 52° ESE 22:07:49 10° S
Cosmos 1758 3.2 22:01:44 10° N 22:05:41 63° E 22:06:55 40° SSE
Cosmos 2333 Rocket 4.0 22:01:50 10° SSE 22:02:56 14° SSE 22:02:56 14° SSE
ARGOS Delta rocket 4.1 22:03:34 10° S 22:07:58 61° WSW 22:12:19 10° NNW
SL-24 R/B 4.1 22:04:12 10° N 22:08:30 72° W 22:12:23 10° SSW
Okean O Rocket 4.2 22:09:23 10° SSW 22:12:30 19° WSW 22:15:36 10° WNW
Cosmos 1892 Rocket 3.4 22:09:24 10° S 22:13:49 89° ESE 22:18:10 10° N
SL-4 R/B 3.9 22:10:26 10° N 22:13:26 22° NE 22:13:26 22° NE
Sakura Rocket 2.8 22:12:41 10° W 22:16:16 55° S 22:16:16 55° S
SL-16 R/B 4.1 22:12:15 10° SW 22:17:13 31° WNW 22:22:09 10° NNW
CZ-4 R/B 4.3 22:17:17 62° SE 22:17:51 73° ENE 22:21:58 10° N
Cosmos 1455 Rocket 4.2 22:15:17 10° NNW 22:19:33 44° W 22:23:52 10° S
Cosmos 2227 Rocket 3.6 22:18:03 10° NNE 22:20:44 22° NE 22:20:44 22° NE
Gbstr 26 Del rocket 3.4 22:17:23 10° SW 22:23:20 67° SE 22:24:05 59° E
YAOGAN 1 3.7 22:25:58 31° NNE 22:25:58 31° NNE 22:28:26 10° N
Okean 1-7 Rocket 3.7 22:24:48 10° S 22:29:23 78° W 22:33:57 10° N
Okean-O 2.6 22:28:24 52° S 22:29:27 79° WSW 22:33:53 10° NNW
Aureole 3 Rocket 3.9 22:22:01 10° N 22:29:44 77° E 22:32:20 36° SSE
Cosmos 2219 3.3 22:25:27 10° N 22:30:32 52° ENE 22:30:32 52° ENE
BREEZE M DEB (TANK) 4.1 22:27:00 10° NW 22:30:58 85° NE 22:35:20 35° SE
ATLAS 3B R/B 4.0 22:26:51 10° NW 22:33:39 40° WSW 22:39:54 13° S
Nadezhda 2 Rocket 4.3 22:28:57 10° S 22:35:08 74° E 22:41:18 10° N
Meteor 2-14 Rocket 4.3 22:30:27 10° S 22:36:38 76° E 22:42:47 10° N
Meteor 2-21 4.3 22:31:26 10° S 22:37:42 85° E 22:43:54 10° N
Timation 2 Rocket 4.1 22:32:51 10° NNW 22:38:57 71° WSW 22:41:50 34° S
Meteor 2-10 4.1 22:33:26 10° N 22:39:10 86° E 22:40:28 56° SSE
Lacrosse 4 Rocket 2.6 22:35:50 10° NNW 22:38:05 32° NNW 22:38:05 32° NNW
Cosmos 1553 Rocket 3.8 22:34:24 10° N 22:40:34 82° E 22:42:40 45° SSE
S3M 4.1 22:42:03 10° N 22:47:19 58° NE 22:47:19 58° NE
Cosmos 1244 Rocket 4.4 22:48:27 10° S 22:54:42 85° W 23:00:50 10° N
CZ-2C R/B 2.9 22:51:45 10° N 22:56:52 62° W 23:02:02 10° SSW
CZ-4 R/B 3.1 22:58:17 33° WNW 22:58:17 33° WNW 23:00:55 10° NNW
Cosmos 1953 4.5 22:53:13 10° NNW 22:54:42 21° NNW 22:54:42 21° NNW
Cosmos 2297 Rocket 3.5 23:17:48 10° NNW 23:21:06 35° NW 23:21:06 35° NW
